Weather History for Auburn-Lewiston, ME

Change the Weather History Date:

Thursday, April 4, 2013

  Actual Average Record
Temperature  
Mean Temperature 39 °F -  
Max Temperature 50 °F 45 °F 53 °F (1997)
Min Temperature 28 °F 27 °F 23 °F (2014)
Degree Days  
Heating Degree Days 26    
Moisture  
Dew Point 11 °F    
Average Humidity 35    
Maximum Humidity 60    
Minimum Humidity 18    
Precipitation  
Precipitation 0.00 in - - ()
Sea Level Pressure  
Sea Level Pressure 30.07 in    
Wind  
Wind Speed 10 mph (West)    
Max Wind Speed 18 mph    
Max Gust Speed 26 mph    
Visibility 10 miles    
Events      
Averages and records for this station are not official NWS values.
T = Trace of Precipitation, MM = Missing Value Source: NWS Daily Summary

Daily Weather History Graph

Daily Weather History Graph

Search for Another Location

Airport:

Trip Planner

Search our weather history database for the weather conditions in past years. The results will help you decide how hot, cold, wet, or windy it might be!

Date:

Astronomy

Apr. 04, 2013 Rise Set
Actual Time 6:16 AM EDT 7:12 PM EDT
Civil Twilight 5:47 AM EDT 7:41 PM EDT
Nautical Twilight 5:12 AM EDT 8:16 PM EDT
Astronomical Twilight 4:35 AM EDT 8:53 PM EDT
Moon 2:53 AM EDT (4/4) 1:15 PM EDT (4/4)
Length of Visible Light 13h 54m
Length of Day
12h 55m
Waning Crescent, 34% of the Moon is Illuminated
Apr 4
Waning Crescent
Apr 10
New
Apr 18
First Quarter
Apr 25
Full
May 2
Last Quarter

Hourly Weather History & Observations

Time (EDT) Temp. Windchill Dew Point Humidity Pressure Visibility Wind Dir Wind Speed Gust Speed Precip Events Conditions
12:15 AM 33.8 °F 27.7 °F 14.0 °F 44% 30.05 in 10.0 mi WNW 6.9 mph 21.9 mph N/A   Overcast
12:35 AM 32.0 °F 23.6 °F 14.0 °F 48% 30.06 in 10.0 mi NW 10.4 mph 19.6 mph N/A   Mostly Cloudy
12:55 AM 32.0 °F 24.8 °F 12.2 °F 44% 30.06 in 10.0 mi NW 8.1 mph 20.7 mph N/A   Partly Cloudy
1:15 AM 32.0 °F 23.6 °F 12.2 °F 44% 30.07 in 10.0 mi WNW 10.4 mph - N/A   Clear
1:35 AM 32.0 °F 23.0 °F 12.2 °F 44% 30.07 in 10.0 mi NW 11.5 mph - N/A   Clear
1:55 AM 32.0 °F 24.8 °F 12.2 °F 44% 30.08 in 10.0 mi NNW 8.1 mph 17.3 mph N/A   Clear
2:15 AM 32.0 °F 23.6 °F 10.4 °F 41% 30.08 in 10.0 mi NW 10.4 mph - N/A   Clear
2:35 AM 32.0 °F 24.2 °F 10.4 °F 41% 30.08 in 10.0 mi WNW 9.2 mph - N/A   Clear
2:55 AM 30.2 °F 21.9 °F 10.4 °F 44% 30.09 in 10.0 mi NW 9.2 mph - N/A   Clear
3:15 AM 30.2 °F 20.8 °F 10.4 °F 44% 30.09 in 10.0 mi NW 11.5 mph 17.3 mph N/A   Clear
3:35 AM 30.2 °F 20.2 °F 8.6 °F 40% 30.09 in 10.0 mi NW 12.7 mph 17.3 mph N/A   Clear
3:55 AM 30.2 °F 22.6 °F 8.6 °F 40% 30.09 in 10.0 mi NW 8.1 mph - N/A   Clear
4:15 AM 30.2 °F 21.9 °F 8.6 °F 40% 30.10 in 10.0 mi WNW 9.2 mph - N/A   Clear
4:35 AM 30.2 °F 21.3 °F 8.6 °F 40% 30.10 in 10.0 mi NNW 10.4 mph - N/A   Clear
4:55 AM 30.2 °F 24.3 °F 8.6 °F 40% 30.10 in 10.0 mi NNW 5.8 mph - N/A   Clear
5:15 AM 30.2 °F 23.4 °F 8.6 °F 40% 30.11 in 10.0 mi NW 6.9 mph - N/A   Clear
5:35 AM 30.2 °F 22.6 °F 8.6 °F 40% 30.12 in 10.0 mi NW 8.1 mph - N/A   Clear
5:55 AM 30.2 °F 23.4 °F 6.8 °F 37% 30.13 in 10.0 mi NW 6.9 mph - N/A   Clear
6:15 AM 30.2 °F 25.4 °F 6.8 °F 37% 30.13 in 10.0 mi WNW 4.6 mph - N/A   Clear
6:35 AM 28.4 °F 22.2 °F 6.8 °F 40% 30.15 in 10.0 mi WSW 5.8 mph - N/A   Clear
6:55 AM 30.2 °F 22.6 °F 8.6 °F 40% 30.16 in 10.0 mi West 8.1 mph - N/A   Clear
7:15 AM 30.2 °F 21.9 °F 6.8 °F 37% 30.17 in 10.0 mi WNW 9.2 mph 16.1 mph N/A   Clear
7:35 AM 32.0 °F 24.8 °F 6.8 °F 35% 30.18 in 10.0 mi WNW 8.1 mph - N/A   Clear
7:55 AM 33.8 °F 27.0 °F 6.8 °F 32% 30.19 in 10.0 mi West 8.1 mph - N/A   Clear
8:15 AM 33.8 °F 24.3 °F 6.8 °F 32% 30.20 in 10.0 mi West 13.8 mph 18.4 mph N/A   Clear
8:35 AM 33.8 °F 26.4 °F 6.8 °F 32% 30.20 in 10.0 mi West 9.2 mph - N/A   Clear
8:55 AM 33.8 °F 26.4 °F 6.8 °F 32% 30.19 in 10.0 mi WNW 9.2 mph 18.4 mph N/A   Clear
9:15 AM 35.6 °F 27.1 °F 6.8 °F 30% 30.20 in 10.0 mi WNW 12.7 mph 19.6 mph N/A   Clear
9:35 AM 35.6 °F 29.9 °F 6.8 °F 30% 30.20 in 10.0 mi NNW 6.9 mph 26.5 mph N/A   Clear
9:55 AM 37.4 °F 29.8 °F 5.0 °F 26% 30.20 in 10.0 mi WNW 11.5 mph 19.6 mph N/A   Clear
10:15 AM 37.4 °F 28.5 °F 6.8 °F 28% 30.20 in 10.0 mi WNW 15.0 mph 21.9 mph N/A   Clear
10:36 AM 39.2 °F 31.6 °F 5.0 °F 24% 30.19 in 10.0 mi WNW 12.7 mph 24.2 mph N/A   Clear
10:55 AM 39.2 °F 30.2 °F 3.2 °F 22% 30.18 in 10.0 mi WNW 17.3 mph 20.7 mph N/A   Clear
11:15 AM 41.0 °F 33.9 °F 5.0 °F 23% 30.17 in 10.0 mi WNW 12.7 mph 18.4 mph N/A   Clear
11:35 AM 42.8 °F 36.6 °F 3.2 °F 19% 30.16 in 10.0 mi NW 11.5 mph 19.6 mph N/A   Clear
11:55 AM 42.8 °F 35.4 °F 3.2 °F 19% 30.14 in 10.0 mi NNW 15.0 mph 19.6 mph N/A   Clear
12:35 PM 44.6 °F 39.7 °F 6.8 °F 21% 30.14 in 10.0 mi West 9.2 mph 17.3 mph N/A   Clear
12:55 PM 44.6 °F 41.4 °F 6.8 °F 21% 30.12 in 10.0 mi West 5.8 mph - N/A   Clear
1:16 PM 44.6 °F 40.2 °F 5.0 °F 20% 30.12 in 10.0 mi West 8.1 mph - N/A   Clear
1:35 PM 46.4 °F 41.9 °F 5.0 °F 18% 30.10 in 10.0 mi West 9.2 mph - N/A   Clear
1:55 PM 46.4 °F 41.5 °F 6.8 °F 20% 30.10 in 10.0 mi WSW 10.4 mph - N/A   Clear
2:15 PM 48.2 °F - 6.8 °F 19% 30.09 in 10.0 mi WSW 8.1 mph - N/A   Clear
2:35 PM 48.2 °F - 6.8 °F 19% 30.08 in 10.0 mi SW 11.5 mph - N/A   Clear
2:55 PM 48.2 °F - 8.6 °F 20% 30.07 in 10.0 mi SW 13.8 mph 19.6 mph N/A   Clear
3:15 PM 48.2 °F - 8.6 °F 20% 30.06 in 10.0 mi SW 15.0 mph 25.3 mph N/A   Clear
3:35 PM 48.2 °F - 8.6 °F 20% 30.05 in 10.0 mi SW 13.8 mph 23.0 mph N/A   Clear
3:55 PM 48.2 °F - 8.6 °F 20% 30.04 in 10.0 mi SW 17.3 mph 23.0 mph N/A   Clear
4:15 PM 50.0 °F - 8.6 °F 19% 30.03 in 10.0 mi WSW 17.3 mph - N/A   Clear
4:35 PM 50.0 °F - 8.6 °F 19% 30.02 in 10.0 mi SW 15.0 mph 21.9 mph N/A   Clear
4:55 PM 50.0 °F - 10.4 °F 20% 30.01 in 10.0 mi SSW 18.4 mph 23.0 mph N/A   Clear
5:15 PM 50.0 °F - 10.4 °F 20% 29.99 in 10.0 mi SSW 13.8 mph 23.0 mph N/A   Clear
5:35 PM 50.0 °F - 10.4 °F 20% 29.99 in 10.0 mi SSW 16.1 mph 19.6 mph N/A   Clear
5:55 PM 50.0 °F - 10.4 °F 20% 29.98 in 10.0 mi SSW 15.0 mph - N/A   Clear
6:15 PM 50.0 °F - 10.4 °F 20% 29.98 in 10.0 mi SSW 15.0 mph 18.4 mph N/A   Clear
6:35 PM 48.2 °F - 10.4 °F 22% 29.98 in 10.0 mi South 10.4 mph - N/A   Clear
6:55 PM 48.2 °F - 10.4 °F 22% 29.98 in 10.0 mi South 8.1 mph - N/A   Clear
7:15 PM 46.4 °F 40.7 °F 10.4 °F 23% 29.98 in 10.0 mi SSE 12.7 mph 16.1 mph N/A   Clear
7:35 PM 42.8 °F 36.6 °F 21.2 °F 42% 29.97 in 10.0 mi South 11.5 mph - N/A   Clear
7:55 PM 42.8 °F 36.6 °F 23.0 °F 46% 29.97 in 10.0 mi SSE 11.5 mph - N/A   Clear
8:15 PM 39.2 °F 34.2 °F 21.2 °F 49% 29.98 in 10.0 mi SE 6.9 mph - N/A   Clear
8:35 PM 39.2 °F 33.0 °F 23.0 °F 52% 29.98 in 10.0 mi SSE 9.2 mph - N/A   Clear
8:55 PM 37.4 °F 30.8 °F 23.0 °F 56% 29.99 in 10.0 mi South 9.2 mph - N/A   Clear
9:15 PM 37.4 °F 31.4 °F 23.0 °F 56% 29.98 in 10.0 mi South 8.1 mph - N/A   Clear
9:35 PM 37.4 °F 32.8 °F 23.0 °F 56% 29.98 in 10.0 mi South 5.8 mph - N/A   Clear
9:55 PM 35.6 °F 32.8 °F 21.2 °F 56% 29.98 in 10.0 mi South 3.5 mph - N/A   Clear
10:15 PM 35.6 °F 30.7 °F 23.0 °F 60% 29.97 in 10.0 mi South 5.8 mph - N/A   Clear
10:35 PM 35.6 °F 32.8 °F 21.2 °F 56% 29.97 in 10.0 mi South 3.5 mph - N/A   Clear
10:55 PM 37.4 °F 32.1 °F 21.2 °F 52% 29.96 in 10.0 mi South 6.9 mph - N/A   Clear
11:15 PM 35.6 °F 32.8 °F 21.2 °F 56% 29.96 in 10.0 mi ENE 3.5 mph - N/A   Clear
11:35 PM 37.4 °F 33.8 °F 21.2 °F 52% 29.94 in 10.0 mi SSE 4.6 mph - N/A   Clear
11:55 PM 37.4 °F 33.8 °F 19.4 °F 48% 29.94 in 10.0 mi SSE 4.6 mph - N/A   Clear